Location: Skymont Scout Reservation
(35.4344°N, 85.8742°W)
Time: 18:47:41
(UTC-06:00)

ISS - All Passes

Search period start: 16 January 2017 00:00
Search period end: 26 January 2017 00:00
Orbit: 400 x 410 km, 51.6° (Epoch: 17 January)

Date Brightness Start Highest point End Pass type
(mag) Time Alt. Az. Time Alt. Az. Time Alt. Az.
16 Jan - 01:04:31 10° NW 01:05:32 11° NNW 01:06:34 10° N night (unlit)
16 Jan - 05:55:46 10° NNW 05:58:44 31° NE 06:01:41 10° ESE visible
16 Jan - 07:32:37 10° W 07:35:04 20° SW 07:37:31 10° S daylight
16 Jan - 22:33:17 10° SSW 22:36:27 50° SE 22:39:37 10° ENE night (unlit)
17 Jan - 00:10:54 10° WNW 00:13:07 17° NNW 00:15:20 10° NNE night (unlit)
17 Jan - 05:04:02 10° NNW 05:06:26 19° NNE 05:08:49 10° ENE visible
17 Jan - 06:39:57 10° WNW 06:43:02 42° SW 06:46:08 10° SSE daylight
17 Jan - 21:41:45 10° S 21:44:24 23° SE 21:47:03 10° ENE night (unlit)
17 Jan - 23:17:56 10° W 23:20:47 28° NW 23:23:38 10° NNE night (unlit)
18 Jan - 04:12:37 10° N 04:14:01 12° NNE 04:15:24 10° NE visible
18 Jan - 05:47:40 10° NW 05:50:56 85° NE 05:54:10 10° SE visible
18 Jan - 20:51:19 10° SSE 20:52:25 11° SE 20:53:30 10° ESE night (unlit)
18 Jan - 22:25:20 10° WSW 22:28:31 53° NW 22:31:43 10° NE night (unlit)
19 Jan - 04:55:37 10° NW 04:58:43 40° NE 05:01:48 10° ESE visible
19 Jan - 06:32:56 10° W 06:34:56 15° SW 06:36:55 10° SSW daylight
19 Jan - 21:33:07 10° SW 21:36:20 69° SE 21:39:34 10° NE night (unlit)
19 Jan - 23:11:14 10° WNW 23:13:07 14° NNW 23:15:00 10° N night (unlit)
20 Jan - 04:03:46 10° NNW 04:06:24 22° NNE 04:09:02 10° E visible
20 Jan - 05:39:58 10° WNW 05:42:54 31° SW 05:45:49 10° SSE visible
20 Jan - 20:41:19 10° SSW 20:44:13 30° SE 20:47:08 10° ENE night (unlit)
20 Jan - 22:18:02 10° W 22:20:42 23° NNW 22:23:22 10° NNE night (unlit)
21 Jan - 03:12:09 10° N 03:13:59 14° NNE 03:15:48 10° ENE night (unlit)
21 Jan - 04:47:33 10° NW 04:50:47 72° SW 04:54:00 10° SE visible
21 Jan - 19:50:15 10° SSE 19:52:10 15° SE 19:54:06 10° E night (unlit)
21 Jan - 21:25:16 10° WSW 21:28:23 41° NW 21:31:29 10° NE night (unlit)
22 Jan - 03:55:23 10° NW 03:58:34 51° NE 04:01:44 10° ESE visible
22 Jan - 05:33:26 10° WSW 05:34:41 12° SW 05:35:54 10° SSW visible
22 Jan - 20:32:52 10° SW 20:36:07 88° NW 20:39:23 10° NE night (unlit)
22 Jan - 22:11:32 10° NW 22:13:01 12° NNW 22:14:30 10° N night (unlit)
23 Jan - 03:03:25 10° NNW 03:06:14 27° NE 03:09:04 10° E night (unlit)
23 Jan - 04:39:57 10° WNW 04:42:38 24° SW 04:45:19 10° S visible
23 Jan - 19:40:52 10° SSW 19:43:56 40° SE 19:47:01 10° ENE visible
23 Jan - 21:18:06 10° W 21:20:31 19° NNW 21:22:59 10° NNE night (unlit)
24 Jan - 02:11:39 10° NNW 02:13:49 16° NNE 02:15:59 10° ENE night (unlit)
24 Jan - 03:47:20 10° WNW 03:50:30 53° SW 03:53:40 10° SSE night (unlit)
24 Jan - 18:49:25 10° S 18:51:49 19° SE 18:54:14 10° E visible
24 Jan - 20:25:08 10° WSW 20:28:07 33° NW 20:31:07 10° NNE night (unlit)
25 Jan - 01:20:24 10° N 01:21:18 11° NNE 01:22:11 10° NE night (unlit)
25 Jan - 02:55:03 10° NW 02:58:17 68° NE 03:01:31 10° SE night (unlit)
25 Jan - 19:32:34 10° SW 19:35:48 67° NW 19:39:03 10° NE visible
25 Jan - 21:11:54 10° NW 21:12:48 11° NNW 21:13:42 10° N night (unlit)
